SCP
0 0 0 0 0 0 0 0 0 0 0 0 0 0 -0 -0 0 0 0 0 0 0 0 0 0 0 0 0 0 0 0 0 0 0 0 0 0 0 0 0 0 0 0 0
0 0 0 0 0 0 0 0 0 0 0 0 0 0 -0 0 0 0 0 0 0 0 0 0 0 0 0 0 0 0 0 0 0 0 0 0 0 0 0 0 0 0 0 0
0 0 0 0 0 0 0 0 0 0 0 0 0 -0 -0 0 0 0 0 0 0 0 0 0 0 0 0 0 0 0 0 0 0 0 0 0 0 0 0 0 0 0 0 0
-0 0 0 0 0 0 0 0 0 0 0 0 0 0 0 0 0 0 0 0 0 0 0 0 0 0 0 0 0 0 0 0 0 0 0 0 0 0 0 0 0 0 0 0
-0 0 0 0 0 -0 -0 0 0 0 0 0 0 0 0 0 0 0 0 0 0 0 0 0 0 0 0 0 0 0 0 0 0 0 0 0 0 0 0 0 0 0 0 0
-0 0 0 0 0 0 -0 0 0 0 0 0 0 0 0 0 0 0 0 0 0 0 0 0 0 0 0 0 0 0 0 0 0 0 0 0 0 0 0 0 0 0 0 0
-0 0 0 0 0 0 0 0 0 0 0 0 0 0 0 0 0 0 0 0 0 0 0 0 0 0 0 0 0 0 0 0 0 0 0 0 0 0 0 0 0 0 0 0
0 0 0 0 0 0 0 0 0 0 0 0 0 0 0 0 0 0 0 0 0 0 0 0 0 0 0 0 0 0 0 0 0 0 0 0 0 0 0 0 0 0 0 0
0 0 0 0 0 -0 0 0 0 0 0 0 0 0 0 0 0 0 0 0 0 0 0 0 0 0 0 0 0 0 0 0 0 0 0 0 0 0 0 0 0 0 0 0
0 0 0 0 0 -0 -0 0 0 0 0 0 0 0 0 0 0 -0 0 0 0 0 0 0 0 0 0 0 0 0 0 0 0 0 0 0 0 0 0 0 0 0 0 0
0 0 0 0 0 0 -0 -0 0 0 0 0 0 0 0 0 0 0 0 0 0 0 0 0 0 0 0 0 0 0 0 0 0 0 0 0 0 0 0 0 0 0 0 0
0 0 0 0 0 0 0 0 0 0 0 0 0 0 0 0 0 0 0 0 0 0 0 0 0 0 0 0 0 0 0 0 0 0 0 0 0 0 0 0 0 0 0 0
0 0 0 0 0 0 0 0 0 0 0 0 0 0 0 0 0 0 0 0 0 0 0 0 0 0 0 0 0 0 0 0 0 0 0 0 0 0 0 0 0 0 0 0
0 0 0 0 0 0 0 0 0 0 0 0 0 0 0 0 0 0 0 0 0 0 0 0 0 0 0 0 0 0 0 0 0 0 0 0 0 0 0 0 0 0 0 0
0 0 0 0 0 0 0 0 0 0 0 0 0 0 0 0 0 0 0 0 0 0 0 0 0 0 0 0 0 0 0 0 0 0 0 0 0 0 0 0 0 0 0 0
0 0 0 0 0 0 0 0 0 0 0 0 0 0 0 0 0 0 0 0 0 0 0 0 0 0 0 0 0 0 0 0 0 0 0 0 0 0 0 0 0 0 0 0
0 0 0 0 0 0 0 0 0 0 0 0 0 0 0 0 0 0 0 0 0 0 0 0 0 0 0 0 0 0 0 0 0 0 0 0 0 0 0 0 0 0 0 0
-0 0 0 0 0 0 0 0 0 0 0 0 0 0 0 0 0 0 0 0 0 0 0 0 0 0 0 0 0 0 0 0 0 0 0 0 0 0 0 0 0 0 0 0
-0 0 0 0 0 0 0 0 0 0 0 0 0 0 0 0 0 0 0 0 0 0 0 0 0 0 0 0 0 0 0 0 0 0 0 0 0 0 0 0 0 0 0 0
0 0 0 0 0 0 0 0 0 0 0 0 0 0 0 0 0 0 0 0 0 0 0 0 0 0 0 0 0 0 0 0 0 0 0 0 0 0 0 0 0 0 0 0
0 0 0 0 0 0 0 0 0 0 0 0 0 0 0 0 0 0 0 0 0 0 0 0 0 0 0 0 0 0 0 0 0 0 0 0 0 0 0 0 0 0 0 0
0 0 0 0 0 0 0 0 0 0 0 0 0 0 0 0 0 0 0 0 0 0 0 0 0 0 0 0 0 0 0 0 0 0 0 0 0 0 0 0 0 0 0 0
-0 -0 0 0 0 0 0 0 0 0 0 0 -0 0 0 0 0 0 0 0 0 0 0 0 0 0 0 0 0 0 0 0 0 0 0 0 0 0 0 0 0 0 0 0
-0 -0 -0 0 0 0 0 0 0 0 0 0 -0 0 0 0 0 0 0 0 0 0 0 0 0 0 0 0 0 0 0 0 0 0 0 0 0 0 0 0 0 0 0 0
-0 -0 -0 -0 0 0 0 0 0 0 0 0 0 0 0 0 0 0 0 0 0 0 0 0 0 0 0 0 0 0 0 0 0 0 0 0 0 0 0 0 0 0 0 0
0 0 0 0 0 0 0 0 0 0 0 0 0 0 0 0 0 0 0 0 0 0 0 0 0 0 0 0 0 0 0 0 0 0 0 0 0 0 0 0 0 0 0 0
0 0 0 0 0 0 0 0 0 0 0 0 0 0 0 0 0 0 0 0 0 0 0 0 0 0 0 0 0 0 0 0 0 0 0 0 0 0 0 0 0 0 0 0
Wind_Speed
4 4 3 2 3 3 4 6 6 6 5 6 5 5 4 3 3 2 2 2 3 2 1 1 1 2 3 4 4 5 5 5 5 5 4 4 4 3 3 3 3 3 3 2
2 2 1 1 3 3 3 3 4 3 4 4 2 1 1 2 3 3 2 3 3 2 2 2 2 2 3 3 4 5 6 6 5 4 4 4 4 3 3 3 2 3 3 3
3 4 2 3 3 2 1 1 4 4 5 1 1 1 2 3 2 3 3 3 3 3 3 4 4 3 3 4 4 4 5 5 4 4 4 4 3 3 3 3 3 3 3 3
1 1 3 5 2 2 2 0 1 2 1 1 2 2 2 2 3 3 3 3 3 3 2 2 2 2 2 3 4 4 4 4 4 4 4 3 3 3 3 3 3 3 3 3
2 2 4 4 2 1 2 1 1 1 0 1 2 3 3 1 1 2 2 2 2 3 2 1 1 2 2 2 3 4 4 4 5 5 5 4 4 4 3 3 3 3 3 3
2 2 5 5 5 2 3 1 3 0 1 1 3 1 4 3 1 0 0 0 1 1 1 2 1 2 2 2 3 4 4 4 4 5 5 5 5 4 3 3 3 2 2 2
3 3 5 5 4 3 2 5 4 1 2 2 2 4 4 2 1 1 1 1 1 2 1 1 1 2 3 3 4 4 4 3 3 4 4 5 4 3 3 3 2 2 2 2
3 3 6 4 2 2 4 2 1 0 0 0 1 1 0 1 0 0 1 1 1 1 0 1 1 2 2 3 4 3 3 3 3 3 3 3 3 3 3 3 3 2 2 2
5 5 3 1 1 1 1 1 1 1 1 1 1 1 1 1 1 1 0 1 1 0 0 1 1 1 2 3 2 2 3 3 3 3 3 3 4 4 3 3 3 3 3 3
1 2 1 2 3 3 2 1 1 1 1 2 1 1 1 1 2 1 1 1 0 1 0 1 2 1 2 2 2 3 3 3 3 3 2 3 3 3 3 4 4 4 4 4
2 2 2 3 3 2 3 3 3 3 2 2 2 1 1 1 1 2 2 2 1 0 1 2 2 2 2 1 2 2 2 2 2 2 3 3 3 3 4 5 6 6 5 5
4 4 3 3 3 2 2 2 2 3 4 3 2 1 1 1 1 1 2 2 2 2 2 2 2 3 2 2 3 3 2 2 2 2 2 2 2 2 3 4 6 7 8 6
3 2 2 2 1 2 1 1 2 2 1 2 2 1 1 1 2 2 2 2 2 3 3 3 2 3 3 2 2 3 3 3 2 2 3 3 3 3 2 3 3 5 6 7
1 2 1 1 1 1 1 1 2 2 2 2 1 2 1 1 2 3 3 3 3 3 3 3 3 3 3 3 3 3 3 3 3 3 3 3 3 4 3 3 3 3 4 6
1 1 2 0 2 3 3 3 3 3 3 3 2 2 2 2 2 3 4 3 2 2 3 3 3 4 3 2 3 3 3 2 2 2 3 3 3 3 3 3 3 3 2 3
1 2 3 3 2 2 3 3 2 2 2 2 2 2 2 2 2 3 3 3 2 3 4 3 4 4 2 2 2 2 3 4 3 2 2 2 2 3 3 3 3 3 3 3
3 1 1 1 1 1 1 1 1 1 2 2 3 3 2 3 3 4 4 4 3 4 4 4 4 3 2 2 2 2 2 3 4 2 2 3 3 3 3 3 3 3 3 4
3 3 3 3 2 0 1 2 1 2 2 3 3 3 2 2 3 4 4 4 4 4 4 4 4 3 2 2 2 2 2 2 2 2 2 3 3 3 3 3 3 3 2 2
2 2 1 1 1 0 1 2 2 2 2 2 2 3 3 3 3 4 4 3 4 5 6 5 6 3 3 3 3 2 2 2 2 2 2 3 3 3 3 3 3 3 3 2
2 2 2 1 1 1 1 2 2 2 2 2 2 3 3 4 4 3 3 3 4 4 5 5 4 3 3 4 4 2 2 3 3 2 2 2 3 3 3 3 3 3 3 3
2 2 1 1 1 1 1 1 1 2 3 2 2 3 4 4 4 3 3 4 5 5 5 6 3 3 3 3 4 2 2 3 3 3 3 3 3 3 3 3 3 3 3 3
1 1 0 1 1 2 2 2 1 2 2 3 3 3 4 4 4 3 3 4 5 6 4 3 3 5 6 4 2 2 3 3 3 2 3 3 3 3 3 3 2 2 2 2
1 1 1 1 1 2 2 2 2 2 2 3 3 3 3 4 3 3 4 4 4 7 4 3 6 8 8 3 2 2 2 3 3 3 3 3 3 3 3 3 2 2 2 2
1 1 1 1 0 1 2 3 3 2 3 3 3 3 3 3 3 3 4 6 8 7 4 5 8 9 6 2 2 2 2 3 3 3 3 2 2 2 2 2 2 2 2 3
2 1 1 1 1 2 3 3 3 3 3 3 4 4 3 3 3 4 4 4 7 6 4 6 8 8 4 2 2 2 2 3 3 2 2 2 2 2 2 2 2 3 3 3
2 2 2 3 2 2 2 1 2 2 2 3 4 4 4 3 4 3 3 4 5 6 4 3 4 4 3 3 3 3 2 3 3 2 2 2 2 2 2 2 3 3 3 3
1 1 1 1 1 2 2 2 2 3 2 3 4 4 4 4 3 3 4 3 3 3 3 3 3 3 3 3 3 2 2 2 2 2 2 2 2 3 3 3 3 3 3 3
Wind_Direction
228 219 190 225 252 228 193 193 195 223 219 238 224 209 204 185 159 146 144 143 150 158 168 175 176 214 201 199 191 176 165 168 181 186 180 177 176 176 174 168 170 170 162 166
287 250 203 282 271 237 225 209 203 212 251 251 233 137 142 184 171 166 179 179 174 169 167 182 191 208 200 195 194 173 169 177 179 171 168 174 181 178 169 168 174 165 166 173
276 294 24 290 265 213 202 215 179 210 238 257 77 154 194 195 191 199 206 199 195 196 193 198 202 199 199 198 176 167 175 177 172 169 172 182 178 169 176 180 173 178 185 179
236 18 225 245 269 153 146 38 120 154 235 200 185 217 221 183 170 202 214 207 214 212 206 211 203 207 210 183 165 171 177 173 170 168 175 177 165 172 186 180 182 192 196 192
139 206 269 292 302 217 166 268 340 129 354 27 94 58 355 303 165 187 197 204 209 206 187 182 194 192 167 166 165 170 182 183 183 178 174 171 177 187 187 176 184 192 188 185
134 179 235 256 290 304 98 268 304 209 174 143 79 78 265 278 296 344 342 183 184 175 137 138 182 168 153 172 167 183 197 197 194 185 176 181 190 191 186 181 187 175 175 190
162 212 259 265 295 51 124 249 282 230 200 169 195 219 231 243 223 175 128 82 110 118 133 189 190 149 156 175 194 203 195 187 187 190 188 186 187 184 173 175 162 165 184 211
152 191 257 298 64 139 227 268 311 315 208 142 296 348 117 150 145 94 64 55 77 99 38 310 161 147 177 207 216 196 177 176 183 189 190 178 170 177 176 169 164 181 194 222
182 205 257 317 155 237 134 76 353 24 341 87 85 23 9 357 350 346 30 25 26 105 12 344 320 171 200 226 205 174 167 179 183 187 189 178 178 181 180 179 183 199 199 215
214 270 322 8 30 28 37 61 16 51 69 89 90 73 15 357 344 343 326 306 338 68 79 314 303 260 221 213 181 156 171 188 185 181 194 195 193 189 186 194 199 206 210 220
260 282 346 358 355 4 15 32 40 32 37 75 90 65 28 349 338 321 317 316 328 314 258 271 281 284 275 207 158 161 184 190 194 191 192 206 212 210 205 212 209 208 213 210
223 229 201 254 292 360 36 30 35 30 15 18 55 43 10 335 314 311 316 321 317 295 270 278 279 276 275 229 176 165 176 195 194 191 192 204 210 253 252 235 233 227 221 217
209 209 195 234 311 14 39 18 27 48 57 26 18 28 8 322 316 321 321 312 287 276 267 269 266 264 264 238 188 179 190 202 203 197 198 206 210 213 246 279 261 239 231 229
152 114 70 351 304 337 15 13 27 36 34 42 27 13 8 342 330 323 305 288 279 277 279 272 260 260 262 240 204 203 207 214 214 209 209 210 216 220 218 220 240 262 254 240
90 118 157 6 30 27 31 44 44 24 8 2 5 5 355 337 318 309 307 308 308 303 296 278 260 264 269 244 217 211 211 219 221 218 216 218 219 219 220 224 228 241 256 251
67 66 77 69 46 29 36 43 38 348 339 338 338 328 317 307 304 307 314 324 322 302 291 277 264 264 261 237 221 221 227 237 231 216 216 219 220 220 223 224 225 227 231 231
111 102 87 61 18 5 2 337 309 305 315 315 303 304 319 335 335 329 324 317 302 292 290 283 274 273 263 226 218 228 229 237 241 227 219 220 220 224 223 221 224 229 236 235
169 177 174 170 167 39 336 332 316 311 296 298 310 322 326 322 310 306 310 318 324 324 316 301 292 281 258 234 229 229 227 233 231 224 222 223 229 228 224 220 222 227 235 234
122 120 117 119 133 105 328 319 306 302 306 317 321 307 295 292 293 301 311 320 318 309 306 305 304 297 267 251 250 226 224 232 236 235 229 237 239 231 225 223 222 220 217 216
119 125 119 92 56 31 306 307 320 323 317 321 323 315 309 302 301 303 304 295 283 283 291 302 301 290 276 259 257 230 221 225 231 235 231 227 230 231 229 227 223 220 216 212
136 123 103 81 7 325 293 285 296 306 309 312 311 301 297 296 299 298 298 297 299 302 305 308 304 290 282 272 257 231 222 226 229 231 232 228 228 230 230 229 226 222 219 211
150 139 108 358 340 321 314 307 297 300 312 313 312 312 313 307 303 297 280 275 288 304 306 293 289 295 301 291 253 231 226 225 228 230 235 233 230 232 230 223 220 223 219 211
169 171 192 267 277 291 318 321 316 309 306 304 301 300 297 290 282 282 291 291 289 300 301 282 297 303 302 290 270 251 240 232 230 230 233 233 231 228 223 223 221 219 216 219
185 195 212 248 307 348 310 302 304 296 291 292 290 288 290 295 294 278 272 296 307 307 299 298 305 307 305 292 276 262 250 241 238 238 238 236 230 225 218 218 223 222 218 220
204 212 215 220 253 265 271 289 306 309 308 304 302 300 292 273 272 284 289 291 302 310 302 307 315 315 308 289 277 269 261 252 249 242 233 234 232 229 226 222 223 223 220 222
220 222 225 224 228 238 246 258 276 287 296 302 302 300 299 295 290 291 294 295 297 306 306 300 304 308 300 292 284 276 272 272 267 253 243 242 239 235 235 234 232 231 227 226
224 227 225 263 268 243 240 248 263 276 275 276 289 294 296 296 293 290 292 294 296 295 294 297 297 297 297 298 297 291 281 270 257 248 243 242 242 241 240 239 238 237 234 230